Total_Precipitation_Accumulation
0.25 0.32 0.35 0.40 0.35 0.31 0.29 0.29 0.47 0.59 0.72 0.88 0.82 0.96 1.29 1.12 0.98 0.91 0.89 0.83 0.78 0.86 1.07 1.22 1.22 1.19 1.33 1.52 1.68 1.84 1.95 2.06 2.35 2.63 2.46 2.18 2.11 2.06 2.02 2.11 2.25 2.57 2.74 2.84
0.22 0.28 0.32 0.36 0.36 0.32 0.28 0.28 0.30 0.46 0.72 0.83 0.89 0.96 1.11 1.08 1.07 1.10 0.99 0.96 0.96 1.12 1.17 1.22 1.33 1.30 1.31 1.39 1.52 1.72 1.88 2.00 2.20 2.31 2.15 1.92 1.80 1.84 1.92 2.04 2.23 2.43 2.58 2.72
0.34 0.30 0.35 0.41 0.37 0.34 0.30 0.37 0.38 0.52 0.72 0.81 0.99 0.96 0.99 1.18 1.23 1.16 0.95 0.98 1.06 1.13 1.32 1.29 1.33 1.37 1.35 1.43 1.63 1.82 1.89 1.89 2.00 2.11 2.16 2.09 1.86 1.90 2.03 2.18 2.31 2.38 2.44 2.49
0.52 0.55 0.67 0.55 0.46 0.41 0.40 0.49 0.47 0.54 0.69 0.80 1.00 1.00 0.89 0.93 1.00 1.09 1.10 1.18 1.18 1.18 1.27 1.25 1.23 1.30 1.31 1.33 1.62 1.89 1.94 1.98 2.07 2.23 2.28 2.29 2.25 2.24 2.36 2.45 2.45 2.47 2.55 2.56
0.75 0.74 0.66 0.65 0.62 0.61 0.71 0.93 0.80 0.70 0.75 0.84 0.86 1.00 1.10 1.00 0.95 1.10 1.18 1.36 1.38 1.28 1.39 1.47 1.50 1.50 1.53 1.55 1.77 2.07 2.19 2.20 2.27 2.43 2.51 2.55 2.62 2.66 2.73 2.72 2.58 2.56 2.70 2.75
0.83 0.96 0.96 0.93 0.76 0.68 0.88 1.46 1.28 1.02 0.91 0.91 1.01 1.48 1.74 1.47 1.27 1.24 1.20 1.35 1.54 1.51 1.39 1.44 1.52 1.73 1.91 1.97 2.08 2.21 2.34 2.43 2.46 2.62 2.75 2.74 2.85 3.01 3.15 3.18 3.04 3.07 2.95 2.80
0.91 1.06 1.11 0.99 0.77 0.82 1.52 1.98 1.60 1.35 1.29 1.25 1.43 1.50 1.50 1.33 1.27 1.28 1.24 1.28 1.41 1.60 1.49 1.48 1.62 1.90 2.12 2.19 2.37 2.46 2.54 2.62 2.64 2.78 2.94 3.10 3.31 3.50 3.56 3.50 3.50 3.40 3.11 2.96
1.15 1.42 1.51 1.00 0.96 1.34 1.73 1.52 1.59 1.67 1.81 1.80 1.57 1.31 1.24 1.27 1.24 1.33 1.30 1.29 1.31 1.34 1.43 1.54 1.69 2.03 2.29 2.27 2.31 2.49 2.65 2.77 2.91 3.00 3.01 3.12 3.52 3.66 3.66 3.63 3.49 3.30 3.13 2.89
1.41 1.63 1.41 1.16 1.27 1.35 1.47 1.53 1.58 1.73 1.85 1.69 1.46 1.35 1.36 1.37 1.29 1.31 1.29 1.32 1.33 1.33 1.45 1.62 1.86 2.11 2.43 2.50 2.40 2.41 2.56 2.72 2.89 3.03 3.23 3.46 3.67 3.69 3.65 3.62 3.47 3.27 3.09 2.84
1.69 1.68 1.38 1.31 1.35 1.34 1.45 1.53 1.62 1.59 1.58 1.57 1.51 1.38 1.38 1.34 1.24 1.24 1.27 1.29 1.31 1.45 1.64 1.79 2.00 2.15 2.41 2.37 2.28 2.34 2.39 2.53 2.67 2.79 2.88 3.01 3.28 3.29 3.18 3.16 3.20 3.16 3.08 2.92
1.95 1.90 1.79 1.78 1.71 1.57 1.50 1.46 1.48 1.52 1.48 1.53 1.53 1.51 1.38 1.36 1.36 1.27 1.24 1.34 1.39 1.60 1.92 2.06 2.08 2.08 2.13 2.09 2.10 2.14 2.17 2.25 2.29 2.34 2.44 2.57 2.66 2.77 2.77 2.76 2.77 2.77 2.74 2.71
2.28 2.04 1.97 2.19 2.07 1.84 1.60 1.55 1.62 1.58 1.51 1.53 1.58 1.64 1.48 1.42 1.42 1.29 1.30 1.40 1.53 1.62 1.80 1.95 2.12 2.24 2.28 2.22 2.27 2.28 2.19 2.15 2.17 2.23 2.30 2.32 2.40 2.45 2.49 2.35 2.23 2.13 2.09 2.09
2.03 1.91 1.86 1.94 1.93 1.78 1.63 1.63 1.76 1.81 1.71 1.61 1.61 1.63 1.54 1.45 1.43 1.42 1.44 1.50 1.61 1.63 1.71 1.83 1.98 2.09 2.32 2.49 2.56 2.57 2.48 2.40 2.31 2.25 2.25 2.29 2.32 2.39 2.38 2.26 2.10 1.93 1.83 1.76
2.05 1.99 1.98 1.89 1.85 1.71 1.57 1.59 1.71 1.69 1.73 1.68 1.67 1.66 1.58 1.42 1.41 1.49 1.51 1.60 1.72 1.80 1.83 1.88 1.99 2.07 2.20 2.49 2.65 2.68 2.61 2.55 2.37 2.23 2.16 2.18 2.21 2.28 2.37 2.45 2.34 2.13 1.90 1.73
2.40 2.25 2.13 2.12 2.07 1.91 1.69 1.63 1.66 1.64 1.59 1.65 1.73 1.83 1.78 1.68 1.60 1.60 1.59 1.61 1.74 1.86 1.95 2.02 2.01 2.04 2.19 2.35 2.51 2.54 2.47 2.37 2.24 2.21 2.19 2.19 2.24 2.30 2.30 2.38 2.36 2.29 2.10 1.90
2.41 2.29 2.12 2.11 2.14 2.06 1.95 1.88 1.89 1.87 1.81 1.76 1.77 1.80 1.83 1.83 1.75 1.67 1.61 1.64 1.82 1.88 1.85 1.98 2.05 2.05 2.17 2.40 2.50 2.54 2.53 2.49 2.29 2.22 2.34 2.39 2.39 2.41 2.37 2.43 2.46 2.36 2.13 1.90
2.33 2.34 2.18 2.02 2.02 2.03 1.95 1.89 1.84 1.86 1.88 1.82 1.75 1.68 1.65 1.67 1.80 1.81 1.73 1.67 1.76 1.88 1.90 2.01 2.06 2.02 2.13 2.31 2.51 2.49 2.41 2.39 2.29 2.16 2.23 2.39 2.41 2.41 2.39 2.41 2.40 2.36 2.21 2.05
1.97 2.08 2.08 1.95 1.81 1.79 1.79 1.75 1.82 1.84 1.84 1.79 1.72 1.67 1.68 1.76 1.96 2.12 2.20 2.15 2.04 1.94 1.88 1.91 1.95 1.95 2.01 2.12 2.20 2.23 2.22 2.16 2.02 1.88 1.95 2.06 2.15 2.18 2.23 2.22 2.24 2.25 2.18 2.01
1.77 1.90 1.92 1.86 1.83 1.70 1.74 1.74 1.79 1.79 1.76 1.82 1.81 1.75 1.70 1.77 1.90 2.07 2.26 2.34 2.25 2.10 1.97 1.86 1.94 1.87 1.94 2.02 2.02 2.02 2.00 1.95 1.85 1.69 1.68 1.85 1.91 1.97 2.04 2.04 2.04 2.03 1.94 1.84
1.98 2.02 1.91 1.76 1.81 1.88 1.88 1.86 1.87 1.92 1.75 1.68 1.70 1.77 1.85 1.89 1.99 2.10 2.14 2.18 2.17 2.12 2.02 1.84 1.70 1.67 1.74 1.86 1.97 1.92 1.88 1.88 1.86 1.66 1.61 1.77 1.86 1.96 1.95 1.92 1.94 1.94 1.83 1.79
1.93 1.93 1.86 1.72 1.69 1.68 1.64 1.66 1.71 1.84 1.88 1.79 1.84 1.93 2.02 1.99 2.03 2.21 2.34 2.23 1.95 1.89 1.85 1.83 1.70 1.67 1.67 1.82 1.93 1.89 1.86 1.88 1.98 1.91 1.83 1.84 1.88 1.95 1.91 1.85 1.82 1.78 1.77 1.79
1.85 1.83 1.84 1.83 1.77 1.66 1.50 1.45 1.55 1.69 1.81 1.94 2.02 2.06 2.12 2.17 2.21 2.24 2.18 2.20 2.03 2.05 1.92 1.77 1.70 1.72 1.71 1.71 1.74 1.82 1.85 1.88 2.01 2.01 1.94 1.94 2.01 2.06 2.06 2.00 1.91 1.81 1.78 1.79
1.85 1.89 1.84 1.82 1.84 1.76 1.59 1.51 1.48 1.61 1.75 1.81 1.94 2.13 2.22 2.19 2.25 2.49 2.29 1.93 1.84 1.93 1.87 1.81 1.80 1.75 1.64 1.47 1.54 1.69 1.75 1.81 1.86 1.84 1.74 1.71 1.72 1.76 1.76 1.69 1.68 1.71 1.72 1.71
1.92 1.87 1.85 1.85 1.85 1.77 1.71 1.64 1.61 1.66 1.64 1.65 1.77 1.97 2.21 2.28 2.18 2.06 2.07 1.98 1.81 1.71 1.59 1.65 1.66 1.62 1.61 1.51 1.58 1.69 1.73 1.77 1.77 1.70 1.64 1.60 1.61 1.63 1.62 1.59 1.58 1.60 1.61 1.62
1.93 1.85 1.78 1.79 1.86 1.86 1.78 1.75 1.80 1.78 1.70 1.70 1.72 1.81 1.93 2.09 2.16 1.96 1.74 1.64 1.60 1.47 1.35 1.37 1.38 1.41 1.40 1.41 1.43 1.53 1.69 1.80 1.78 1.64 1.54 1.54 1.56 1.56 1.51 1.46 1.47 1.56 1.58 1.55
2.00 1.97 1.92 1.87 1.83 1.82 1.80 1.84 1.97 1.97 1.99 2.06 1.95 1.83 1.83 1.82 1.82 1.86 1.75 1.58 1.51 1.45 1.30 1.30 1.27 1.25 1.24 1.31 1.32 1.36 1.49 1.68 1.75 1.67 1.52 1.52 1.52 1.52 1.51 1.48 1.41 1.43 1.45 1.45
2.07 2.04 1.98 1.91 1.83 1.73 1.82 1.92 2.04 2.10 2.16 2.27 2.28 2.09 1.95 1.81 1.77 1.79 1.77 1.71 1.57 1.45 1.38 1.35 1.30 1.26 1.24 1.22 1.18 1.18 1.28 1.43 1.52 1.56 1.60 1.60 1.60 1.60 1.55 1.48 1.40 1.35 1.36 1.36